owner,sensor,date,latitude,longitude,vertical_datum,wind_speed,wind_to_direction,wind_speed_of_gust,qcFlag 
NDBC,ioos:station:NOAA.NDBC:PTAT2:1,2014-08-01T00:00:00Z,27.8260,-97.0510,14.9,6.7,130.0,7.2,'1111122,1111122,1111122' 
NDBC,ioos:station:NOAA.NDBC:PTAT2:1,2014-08-01T01:00:00Z,27.8260,-97.0510,14.9,6.2,140.0,6.7,'1111122,1111122,1111122' 
NDBC,ioos:station:NOAA.NDBC:PTAT2:1,2014-08-01T02:00:00Z,27.8260,-97.0510,14.9,6.7,140.0,7.7,'1111122,1111122,1111122' 
NDBC,ioos:station:NOAA.NDBC:PTAT2:1,2014-08-01T03:00:00Z,27.8260,-97.0510,14.9,6.7,160.0,7.2,'1111122,1111122,1111122' 
NDBC,ioos:station:NOAA.NDBC:PTAT2:1,2014-08-01T04:00:00Z,27.8260,-97.0510,14.9,5.7,150.0,5.7,'1111122,1111122,1111122' 
NDBC,ioos:station:NOAA.NDBC:PTAT2:1,2014-08-01T05:00:00Z,27.8260,-97.0510,14.9,6.7,160.0,7.7,'1111122,1111122,1111122' 
NDBC,ioos:station:NOAA.NDBC:PTAT2:1,2014-08-01T07:00:00Z,27.8260,-97.0510,14.9,5.7,170.0,6.7,'1111122,1111122,1111122' 
NDBC,ioos:station:NOAA.NDBC:PTAT2:1,2014-08-01T08:00:00Z,27.8260,-97.0510,14.9,6.7,180.0,7.7,'1111122,1111122,1111122' 
NDBC,ioos:station:NOAA.NDBC:PTAT2:1,2014-08-01T09:00:00Z,27.8260,-97.0510,14.9,4.6,180.0,5.7,'1111122,1111122,1111122' 
NDBC,ioos:station:NOAA.NDBC:PTAT2:1,2014-08-01T10:00:00Z,27.8260,-97.0510,14.9,4.6,170.0,5.1,'1111122,1111122,1111122' 
NDBC,ioos:station:NOAA.NDBC:PTAT2:1,2014-08-01T11:00:00Z,27.8260,-97.0510,14.9,2.1,140.0,2.1,'1111122,1111122,1111122' 
NDBC,ioos:station:NOAA.NDBC:PTAT2:1,2014-08-01T12:00:00Z,27.8260,-97.0510,14.9,2.1,10.0,2.1,'1111122,1111122,1111122' 
NDBC,ioos:station:NOAA.NDBC:PTAT2:1,2014-08-01T13:00:00Z,27.8260,-97.0510,14.9,1.5,360.0,1.5,'1111122,1111122,1111122' 
NDBC,ioos:station:NOAA.NDBC:PTAT2:1,2014-08-01T14:00:00Z,27.8260,-97.0510,14.9,1.5,50.0,1.5,'1111122,1111122,1111122' 
NDBC,ioos:station:NOAA.NDBC:PTAT2:1,2014-08-01T15:00:00Z,27.8260,-97.0510,14.9,1.5,90.0,1.5,'1111122,1111122,1111122' 
NDBC,ioos:station:NOAA.NDBC:PTAT2:1,2014-08-01T16:00:00Z,27.8260,-97.0510,14.9,2.1,90.0,2.6,'1111122,1111122,1111122' 
NDBC,ioos:station:NOAA.NDBC:PTAT2:1,2014-08-01T17:00:00Z,27.8260,-97.0510,14.9,2.6,100.0,3.1,'1111122,1111122,1111122' 
NDBC,ioos:station:NOAA.NDBC:PTAT2:1,2014-08-01T18:00:00Z,27.8260,-97.0510,14.9,3.1,100.0,3.6,'1111122,1111122,1111122' 
NDBC,ioos:station:NOAA.NDBC:PTAT2:1,2014-08-01T19:00:00Z,27.8260,-97.0510,14.9,2.6,120.0,3.1,'1111122,1111122,1111122' 
NDBC,ioos:station:NOAA.NDBC:PTAT2:1,2014-08-01T20:00:00Z,27.8260,-97.0510,14.9,3.1,120.0,3.6,'1111122,1111122,1111122' 
NDBC,ioos:station:NOAA.NDBC:PTAT2:1,2014-08-01T21:00:00Z,27.8260,-97.0510,14.9,4.1,110.0,4.6,'1111122,1111122,1111122' 
NDBC,ioos:station:NOAA.NDBC:PTAT2:1,2014-08-01T22:00:00Z,27.8260,-97.0510,14.9,5.7,120.0,6.2,'1111122,1111122,1111122' 
NDBC,ioos:station:NOAA.NDBC:PTAT2:1,2014-08-01T23:00:00Z,27.8260,-97.0510,14.9,5.7,130.0,6.7,'1111122,1111122,1111122' 
NDBC,ioos:station:NOAA.NDBC:PTAT2:1,2014-08-02T00:00:00Z,27.8260,-97.0510,14.9,3.1,120.0,3.6,'1111122,1111122,1111122' 
NDBC,ioos:station:NOAA.NDBC:PTAT2:1,2014-08-02T01:00:00Z,27.8260,-97.0510,14.9,2.6,120.0,2.6,'1111122,1111122,1111122' 
NDBC,ioos:station:NOAA.NDBC:PTAT2:1,2014-08-02T02:00:00Z,27.8260,-97.0510,14.9,2.1,160.0,2.6,'1111122,1111122,1111122' 
NDBC,ioos:station:NOAA.NDBC:PTAT2:1,2014-08-02T03:00:00Z,27.8260,-97.0510,14.9,1.5,150.0,1.5,'1111122,1111122,1111122' 
NDBC,ioos:station:NOAA.NDBC:PTAT2:1,2014-08-02T04:00:00Z,27.8260,-97.0510,14.9,1.0,110.0,1.5,'1111122,1111122,1111122' 
NDBC,ioos:station:NOAA.NDBC:PTAT2:1,2014-08-02T05:00:00Z,27.8260,-97.0510,14.9,0.5,130.0,1.0,'1111122,1111122,1111122' 
NDBC,ioos:station:NOAA.NDBC:PTAT2:1,2014-08-02T06:00:00Z,27.8260,-97.0510,14.9,2.1,170.0,2.1,'1111122,1111122,1111122' 
NDBC,ioos:station:NOAA.NDBC:PTAT2:1,2014-08-02T08:00:00Z,27.8260,-97.0510,14.9,3.6,200.0,4.1,'1111122,1111122,1111122' 
NDBC,ioos:station:NOAA.NDBC:PTAT2:1,2014-08-02T09:00:00Z,27.8260,-97.0510,14.9,4.6,210.0,5.1,'1111122,1111122,1111122' 
NDBC,ioos:station:NOAA.NDBC:PTAT2:1,2014-08-02T10:00:00Z,27.8260,-97.0510,14.9,3.6,220.0,4.1,'1111122,1111122,1111122' 
NDBC,ioos:station:NOAA.NDBC:PTAT2:1,2014-08-02T12:00:00Z,27.8260,-97.0510,14.9,3.6,30.0,4.1,'1111122,1111122,1111122' 
NDBC,ioos:station:NOAA.NDBC:PTAT2:1,2014-08-02T13:00:00Z,27.8260,-97.0510,14.9,6.7,30.0,6.7,'1111122,1111122,1111122' 
NDBC,ioos:station:NOAA.NDBC:PTAT2:1,2014-08-02T14:00:00Z,27.8260,-97.0510,14.9,4.6,350.0,5.1,'1111122,1111122,1111122' 
NDBC,ioos:station:NOAA.NDBC:PTAT2:1,2014-08-02T15:00:00Z,27.8260,-97.0510,14.9,5.1,20.0,5.7,'1111122,1111122,1111122' 
NDBC,ioos:station:NOAA.NDBC:PTAT2:1,2014-08-02T16:00:00Z,27.8260,-97.0510,14.9,4.1,50.0,4.6,'1111122,1111122,1111122' 
NDBC,ioos:station:NOAA.NDBC:PTAT2:1,2014-08-02T17:00:00Z,27.8260,-97.0510,14.9,5.7,50.0,6.2,'1111122,1111122,1111122' 
NDBC,ioos:station:NOAA.NDBC:PTAT2:1,2014-08-02T18:00:00Z,27.8260,-97.0510,14.9,6.2,40.0,6.2,'1111122,1111122,1111122' 
NDBC,ioos:station:NOAA.NDBC:PTAT2:1,2014-08-02T19:00:00Z,27.8260,-97.0510,14.9,6.7,60.0,7.2,'1111122,1111122,1111122' 
NDBC,ioos:station:NOAA.NDBC:PTAT2:1,2014-08-02T20:00:00Z,27.8260,-97.0510,14.9,6.2,70.0,6.7,'1111122,1111122,1111122' 
NDBC,ioos:station:NOAA.NDBC:PTAT2:1,2014-08-02T21:00:00Z,27.8260,-97.0510,14.9,5.1,80.0,5.7,'1111122,1111122,1111122' 
NDBC,ioos:station:NOAA.NDBC:PTAT2:1,2014-08-02T22:00:00Z,27.8260,-97.0510,14.9,4.6,100.0,5.1,'1111122,1111122,1111122' 
NDBC,ioos:station:NOAA.NDBC:PTAT2:1,2014-08-02T23:00:00Z,27.8260,-97.0510,14.9,5.1,90.0,5.7,'1111122,1111122,1111122' 
NDBC,ioos:station:NOAA.NDBC:PTAT2:1,2014-08-03T00:00:00Z,27.8260,-97.0510,14.9,5.7,70.0,6.2,'1111122,1111122,1111122' 
NDBC,ioos:station:NOAA.NDBC:PTAT2:1,2014-08-03T01:00:00Z,27.8260,-97.0510,14.9,5.7,70.0,6.2,'1111122,1111122,1111122' 
NDBC,ioos:station:NOAA.NDBC:PTAT2:1,2014-08-03T02:00:00Z,27.8260,-97.0510,14.9,5.7,70.0,6.7,'1111122,1111122,1111122' 
NDBC,ioos:station:NOAA.NDBC:PTAT2:1,2014-08-03T03:00:00Z,27.8260,-97.0510,14.9,4.6,60.0,5.1,'1111122,1111122,1111122' 
NDBC,ioos:station:NOAA.NDBC:PTAT2:1,2014-08-03T04:00:00Z,27.8260,-97.0510,14.9,4.1,60.0,4.6,'1111122,1111122,1111122' 
NDBC,ioos:station:NOAA.NDBC:PTAT2:1,2014-08-03T05:00:00Z,27.8260,-97.0510,14.9,5.1,30.0,5.7,'1111122,1111122,1111122' 
NDBC,ioos:station:NOAA.NDBC:PTAT2:1,2014-08-03T07:00:00Z,27.8260,-97.0510,14.9,2.1,360.0,2.1,'1111122,1111122,1111122' 
NDBC,ioos:station:NOAA.NDBC:PTAT2:1,2014-08-03T08:00:00Z,27.8260,-97.0510,14.9,2.6,360.0,3.1,'1111122,1111122,1111122' 
NDBC,ioos:station:NOAA.NDBC:PTAT2:1,2014-08-03T09:00:00Z,27.8260,-97.0510,14.9,2.6,360.0,2.6,'1111122,1111122,1111122' 
NDBC,ioos:station:NOAA.NDBC:PTAT2:1,2014-08-03T10:00:00Z,27.8260,-97.0510,14.9,3.6,360.0,3.6,'1111122,1111122,1111122' 
NDBC,ioos:station:NOAA.NDBC:PTAT2:1,2014-08-03T11:00:00Z,27.8260,-97.0510,14.9,4.1,360.0,4.1,'1111122,1111122,1111122' 
NDBC,ioos:station:NOAA.NDBC:PTAT2:1,2014-08-03T12:00:00Z,27.8260,-97.0510,14.9,2.6,330.0,3.1,'1111122,1111122,1111122' 
NDBC,ioos:station:NOAA.NDBC:PTAT2:1,2014-08-03T13:00:00Z,27.8260,-97.0510,14.9,3.1,330.0,3.6,'1111122,1111122,1111122' 
NDBC,ioos:station:NOAA.NDBC:PTAT2:1,2014-08-03T14:00:00Z,27.8260,-97.0510,14.9,4.1,340.0,4.1,'1111122,1111122,1111122' 
NDBC,ioos:station:NOAA.NDBC:PTAT2:1,2014-08-03T15:00:00Z,27.8260,-97.0510,14.9,4.1,340.0,5.1,'1111122,1111122,1111122' 
NDBC,ioos:station:NOAA.NDBC:PTAT2:1,2014-08-03T16:00:00Z,27.8260,-97.0510,14.9,3.6,340.0,4.6,'1111122,1111122,1111122' 
NDBC,ioos:station:NOAA.NDBC:PTAT2:1,2014-08-03T17:00:00Z,27.8260,-97.0510,14.9,3.1,40.0,3.1,'1111122,1111122,1111122' 
NDBC,ioos:station:NOAA.NDBC:PTAT2:1,2014-08-03T18:00:00Z,27.8260,-97.0510,14.9,3.6,110.0,3.6,'1111122,1111122,1111122' 
NDBC,ioos:station:NOAA.NDBC:PTAT2:1,2014-08-03T19:00:00Z,27.8260,-97.0510,14.9,4.1,110.0,4.1,'1111122,1111122,1111122' 
NDBC,ioos:station:NOAA.NDBC:PTAT2:1,2014-08-03T20:00:00Z,27.8260,-97.0510,14.9,4.6,130.0,5.1,'1111122,1111122,1111122' 
NDBC,ioos:station:NOAA.NDBC:PTAT2:1,2014-08-03T21:00:00Z,27.8260,-97.0510,14.9,4.6,140.0,5.1,'1111122,1111122,1111122' 
NDBC,ioos:station:NOAA.NDBC:PTAT2:1,2014-08-03T22:00:00Z,27.8260,-97.0510,14.9,5.1,130.0,5.7,'1111122,1111122,1111122' 
NDBC,ioos:station:NOAA.NDBC:PTAT2:1,2014-08-03T23:00:00Z,27.8260,-97.0510,14.9,4.6,150.0,5.1,'1111122,1111122,1111122' 
NDBC,ioos:station:NOAA.NDBC:PTAT2:1,2014-08-04T00:00:00Z,27.8260,-97.0510,14.9,5.1,150.0,5.7,'1111122,1111122,1111122' 
NDBC,ioos:station:NOAA.NDBC:PTAT2:1,2014-08-04T02:00:00Z,27.8260,-97.0510,14.9,4.6,160.0,5.1,'1111122,1111122,1111122' 
NDBC,ioos:station:NOAA.NDBC:PTAT2:1,2014-08-04T03:00:00Z,27.8260,-97.0510,14.9,4.1,180.0,4.6,'1111122,1111122,1111122' 
NDBC,ioos:station:NOAA.NDBC:PTAT2:1,2014-08-04T04:00:00Z,27.8260,-97.0510,14.9,3.1,180.0,3.6,'1111122,1111122,1111122' 
NDBC,ioos:station:NOAA.NDBC:PTAT2:1,2014-08-04T05:00:00Z,27.8260,-97.0510,14.9,2.6,170.0,2.6,'1111122,1111122,1111122' 
NDBC,ioos:station:NOAA.NDBC:PTAT2:1,2014-08-04T07:00:00Z,27.8260,-97.0510,14.9,1.5,170.0,2.1,'1111122,1111122,1111122' 
NDBC,ioos:station:NOAA.NDBC:PTAT2:1,2014-08-04T08:00:00Z,27.8260,-97.0510,14.9,1.0,130.0,1.0,'1111122,1111122,1111122' 
NDBC,ioos:station:NOAA.NDBC:PTAT2:1,2014-08-04T09:00:00Z,27.8260,-97.0510,14.9,1.5,190.0,1.5,'1111122,1111122,1111122' 
NDBC,ioos:station:NOAA.NDBC:PTAT2:1,2014-08-04T10:00:00Z,27.8260,-97.0510,14.9,3.1,240.0,3.1,'1111122,1111122,1111122' 
NDBC,ioos:station:NOAA.NDBC:PTAT2:1,2014-08-04T11:00:00Z,27.8260,-97.0510,14.9,2.1,260.0,2.1,'1111122,1111122,1111122' 
NDBC,ioos:station:NOAA.NDBC:PTAT2:1,2014-08-04T12:00:00Z,27.8260,-97.0510,14.9,2.1,300.0,2.6,'1111122,1111122,1111122' 
NDBC,ioos:station:NOAA.NDBC:PTAT2:1,2014-08-04T13:00:00Z,27.8260,-97.0510,14.9,1.5,360.0,1.5,'1111122,1111122,1111122' 
NDBC,ioos:station:NOAA.NDBC:PTAT2:1,2014-08-04T15:00:00Z,27.8260,-97.0510,14.9,3.6,290.0,5.1,'1111122,1111122,1111122' 
NDBC,ioos:station:NOAA.NDBC:PTAT2:1,2014-08-04T16:00:00Z,27.8260,-97.0510,14.9,3.1,310.0,4.1,'1111122,1111122,1111122' 
NDBC,ioos:station:NOAA.NDBC:PTAT2:1,2014-08-04T17:00:00Z,27.8260,-97.0510,14.9,3.1,110.0,3.6,'1111122,1111122,1111122' 
NDBC,ioos:station:NOAA.NDBC:PTAT2:1,2014-08-04T18:00:00Z,27.8260,-97.0510,14.9,3.6,120.0,3.6,'1111122,1111122,1111122' 
NDBC,ioos:station:NOAA.NDBC:PTAT2:1,2014-08-04T19:00:00Z,27.8260,-97.0510,14.9,4.1,120.0,4.6,'1111122,1111122,1111122' 
NDBC,ioos:station:NOAA.NDBC:PTAT2:1,2014-08-04T20:00:00Z,27.8260,-97.0510,14.9,5.1,130.0,5.7,'1111122,1111122,1111122' 
NDBC,ioos:station:NOAA.NDBC:PTAT2:1,2014-08-04T21:00:00Z,27.8260,-97.0510,14.9,6.2,120.0,6.7,'1111122,1111122,1111122' 
NDBC,ioos:station:NOAA.NDBC:PTAT2:1,2014-08-04T22:00:00Z,27.8260,-97.0510,14.9,6.7,130.0,7.2,'1111122,1111122,1111122' 
NDBC,ioos:station:NOAA.NDBC:PTAT2:1,2014-08-04T23:00:00Z,27.8260,-97.0510,14.9,8.2,110.0,8.8,'1111122,1111122,1111122' 
NDBC,ioos:station:NOAA.NDBC:PTAT2:1,2014-08-05T00:00:00Z,27.8260,-97.0510,14.9,7.2,110.0,7.7,'1111122,1111122,1111122' 
NDBC,ioos:station:NOAA.NDBC:PTAT2:1,2014-08-05T01:00:00Z,27.8260,-97.0510,14.9,6.2,100.0,6.7,'1111122,1111122,1111122' 
NDBC,ioos:station:NOAA.NDBC:PTAT2:1,2014-08-05T02:00:00Z,27.8260,-97.0510,14.9,5.1,120.0,5.7,'1111122,1111122,1111122' 
NDBC,ioos:station:NOAA.NDBC:PTAT2:1,2014-08-05T03:00:00Z,27.8260,-97.0510,14.9,4.1,140.0,4.6,'1111122,1111122,1111122' 
NDBC,ioos:station:NOAA.NDBC:PTAT2:1,2014-08-05T04:00:00Z,27.8260,-97.0510,14.9,4.6,120.0,5.1,'1111122,1111122,1111122' 
NDBC,ioos:station:NOAA.NDBC:PTAT2:1,2014-08-05T05:00:00Z,27.8260,-97.0510,14.9,3.6,120.0,4.1,'1111122,1111122,1111122' 
NDBC,ioos:station:NOAA.NDBC:PTAT2:1,2014-08-05T07:00:00Z,27.8260,-97.0510,14.9,2.6,150.0,3.1,'1111122,1111122,1111122' 
NDBC,ioos:station:NOAA.NDBC:PTAT2:1,2014-08-05T08:00:00Z,27.8260,-97.0510,14.9,1.5,120.0,1.5,'1111122,1111122,1111122' 
NDBC,ioos:station:NOAA.NDBC:PTAT2:1,2014-08-05T09:00:00Z,27.8260,-97.0510,14.9,1.0,80.0,1.0,'1111122,1111122,1111122' 
NDBC,ioos:station:NOAA.NDBC:PTAT2:1,2014-08-05T10:00:00Z,27.8260,-97.0510,14.9,1.0,80.0,1.5,'1111122,1111122,1111122' 
NDBC,ioos:station:NOAA.NDBC:PTAT2:1,2014-08-05T11:00:00Z,27.8260,-97.0510,14.9,1.0,70.0,1.0,'1111122,1111122,1111122' 
NDBC,ioos:station:NOAA.NDBC:PTAT2:1,2014-08-05T13:00:00Z,27.8260,-97.0510,14.9,2.1,10.0,2.1,'1111122,1111122,1111122' 
NDBC,ioos:station:NOAA.NDBC:PTAT2:1,2014-08-05T14:00:00Z,27.8260,-97.0510,14.9,2.6,40.0,3.1,'1111122,1111122,1111122' 
NDBC,ioos:station:NOAA.NDBC:PTAT2:1,2014-08-05T15:00:00Z,27.8260,-97.0510,14.9,2.1,60.0,2.6,'1111122,1111122,1111122' 
NDBC,ioos:station:NOAA.NDBC:PTAT2:1,2014-08-05T16:00:00Z,27.8260,-97.0510,14.9,2.6,70.0,2.6,'1111122,1111122,1111122' 
NDBC,ioos:station:NOAA.NDBC:PTAT2:1,2014-08-05T17:00:00Z,27.8260,-97.0510,14.9,3.6,70.0,4.1,'1111122,1111122,1111122' 
NDBC,ioos:station:NOAA.NDBC:PTAT2:1,2014-08-05T18:00:00Z,27.8260,-97.0510,14.9,3.6,80.0,4.1,'1111122,1111122,1111122' 
NDBC,ioos:station:NOAA.NDBC:PTAT2:1,2014-08-05T19:00:00Z,27.8260,-97.0510,14.9,4.6,90.0,5.1,'1111122,1111122,1111122' 
NDBC,ioos:station:NOAA.NDBC:PTAT2:1,2014-08-05T20:00:00Z,27.8260,-97.0510,14.9,5.1,100.0,5.1,'1111122,1111122,1111122' 
NDBC,ioos:station:NOAA.NDBC:PTAT2:1,2014-08-05T22:00:00Z,27.8260,-97.0510,14.9,6.2,110.0,6.7,'1111122,1111122,1111122' 
NDBC,ioos:station:NOAA.NDBC:PTAT2:1,2014-08-05T23:00:00Z,27.8260,-97.0510,14.9,6.7,120.0,7.7,'1111122,1111122,1111122' 
NDBC,ioos:station:NOAA.NDBC:PTAT2:1,2014-08-06T00:00:00Z,27.8260,-97.0510,14.9,6.2,120.0,6.7,'1111122,1111122,1111122' 
NDBC,ioos:station:NOAA.NDBC:PTAT2:1,2014-08-06T01:00:00Z,27.8260,-97.0510,14.9,6.2,120.0,7.2,'1111122,1111122,1111122' 
NDBC,ioos:station:NOAA.NDBC:PTAT2:1,2014-08-06T02:00:00Z,27.8260,-97.0510,14.9,5.7,120.0,6.2,'1111122,1111122,1111122' 
NDBC,ioos:station:NOAA.NDBC:PTAT2:1,2014-08-06T04:00:00Z,27.8260,-97.0510,14.9,4.6,130.0,5.1,'1111122,1111122,1111122' 
NDBC,ioos:station:NOAA.NDBC:PTAT2:1,2014-08-06T05:00:00Z,27.8260,-97.0510,14.9,4.1,140.0,4.6,'1111122,1111122,1111122' 
NDBC,ioos:station:NOAA.NDBC:PTAT2:1,2014-08-06T07:00:00Z,27.8260,-97.0510,14.9,3.6,160.0,4.1,'1111122,1111122,1111122' 
NDBC,ioos:station:NOAA.NDBC:PTAT2:1,2014-08-06T08:00:00Z,27.8260,-97.0510,14.9,3.6,160.0,4.1,'1111122,1111122,1111122' 
NDBC,ioos:station:NOAA.NDBC:PTAT2:1,2014-08-06T09:00:00Z,27.8260,-97.0510,14.9,3.6,170.0,4.1,'1111122,1111122,1111122' 
NDBC,ioos:station:NOAA.NDBC:PTAT2:1,2014-08-06T10:00:00Z,27.8260,-97.0510,14.9,4.6,170.0,5.1,'1111122,1111122,1111122' 
NDBC,ioos:station:NOAA.NDBC:PTAT2:1,2014-08-06T11:00:00Z,27.8260,-97.0510,14.9,4.1,160.0,4.6,'1111122,1111122,1111122' 
NDBC,ioos:station:NOAA.NDBC:PTAT2:1,2014-08-06T12:00:00Z,27.8260,-97.0510,14.9,4.1,160.0,4.6,'1111122,1111122,1111122' 
NDBC,ioos:station:NOAA.NDBC:PTAT2:1,2014-08-06T13:00:00Z,27.8260,-97.0510,14.9,4.1,170.0,4.6,'1111122,1111122,1111122' 
NDBC,ioos:station:NOAA.NDBC:PTAT2:1,2014-08-06T14:00:00Z,27.8260,-97.0510,14.9,4.1,170.0,4.6,'1111122,1111122,1111122' 
NDBC,ioos:station:NOAA.NDBC:PTAT2:1,2014-08-06T15:00:00Z,27.8260,-97.0510,14.9,2.6,160.0,3.1,'1111122,1111122,1111122' 
NDBC,ioos:station:NOAA.NDBC:PTAT2:1,2014-08-06T16:00:00Z,27.8260,-97.0510,14.9,3.6,160.0,3.6,'1111122,1111122,1111122' 
NDBC,ioos:station:NOAA.NDBC:PTAT2:1,2014-08-06T17:00:00Z,27.8260,-97.0510,14.9,4.6,150.0,5.1,'1111122,1111122,1111122' 
NDBC,ioos:station:NOAA.NDBC:PTAT2:1,2014-08-06T18:00:00Z,27.8260,-97.0510,14.9,4.6,140.0,5.1,'1111122,1111122,1111122' 
NDBC,ioos:station:NOAA.NDBC:PTAT2:1,2014-08-06T19:00:00Z,27.8260,-97.0510,14.9,5.7,140.0,6.2,'1111122,1111122,1111122' 
NDBC,ioos:station:NOAA.NDBC:PTAT2:1,2014-08-06T20:00:00Z,27.8260,-97.0510,14.9,6.7,130.0,7.2,'1111122,1111122,1111122' 
NDBC,ioos:station:NOAA.NDBC:PTAT2:1,2014-08-06T21:00:00Z,27.8260,-97.0510,14.9,7.2,120.0,7.7,'1111122,1111122,1111122' 
NDBC,ioos:station:NOAA.NDBC:PTAT2:1,2014-08-06T22:00:00Z,27.8260,-97.0510,14.9,7.7,110.0,8.2,'1111122,1111122,1111122' 
NDBC,ioos:station:NOAA.NDBC:PTAT2:1,2014-08-06T23:00:00Z,27.8260,-97.0510,14.9,7.2,120.0,8.2,'1111122,1111122,1111122' 
NDBC,ioos:station:NOAA.NDBC:PTAT2:1,2014-08-07T00:00:00Z,27.8260,-97.0510,14.9,8.2,130.0,9.8,'1111122,1111122,1111122' 
NDBC,ioos:station:NOAA.NDBC:PTAT2:1,2014-08-07T01:00:00Z,27.8260,-97.0510,14.9,9.3,130.0,10.3,'1111122,1111122,1111122' 
NDBC,ioos:station:NOAA.NDBC:PTAT2:1,2014-08-07T02:00:00Z,27.8260,-97.0510,14.9,8.8,130.0,10.3,'1111122,1111122,1111122' 
NDBC,ioos:station:NOAA.NDBC:PTAT2:1,2014-08-07T03:00:00Z,27.8260,-97.0510,14.9,8.8,140.0,9.3,'1111122,1111122,1111122' 
NDBC,ioos:station:NOAA.NDBC:PTAT2:1,2014-08-07T05:00:00Z,27.8260,-97.0510,14.9,8.2,160.0,9.3,'1111122,1111122,1111122' 
NDBC,ioos:station:NOAA.NDBC:PTAT2:1,2014-08-07T07:00:00Z,27.8260,-97.0510,14.9,9.3,160.0,9.8,'1111122,1111122,1111122' 
NDBC,ioos:station:NOAA.NDBC:PTAT2:1,2014-08-07T08:00:00Z,27.8260,-97.0510,14.9,9.8,160.0,11.3,'1111122,1111122,1111122' 
NDBC,ioos:station:NOAA.NDBC:PTAT2:1,2014-08-07T09:00:00Z,27.8260,-97.0510,14.9,9.3,160.0,10.8,'1111122,1111122,1111122' 
NDBC,ioos:station:NOAA.NDBC:PTAT2:1,2014-08-07T10:00:00Z,27.8260,-97.0510,14.9,9.3,170.0,10.3,'1111122,1111122,1111122' 
NDBC,ioos:station:NOAA.NDBC:PTAT2:1,2014-08-07T11:00:00Z,27.8260,-97.0510,14.9,8.8,170.0,10.3,'1111122,1111122,1111122' 
NDBC,ioos:station:NOAA.NDBC:PTAT2:1,2014-08-07T12:00:00Z,27.8260,-97.0510,14.9,7.2,180.0,7.7,'1111122,1111122,1111122' 
NDBC,ioos:station:NOAA.NDBC:PTAT2:1,2014-08-07T13:00:00Z,27.8260,-97.0510,14.9,6.7,170.0,7.7,'1111122,1111122,1111122' 
NDBC,ioos:station:NOAA.NDBC:PTAT2:1,2014-08-07T14:00:00Z,27.8260,-97.0510,14.9,6.2,170.0,7.2,'1111122,1111122,1111122' 
NDBC,ioos:station:NOAA.NDBC:PTAT2:1,2014-08-07T15:00:00Z,27.8260,-97.0510,14.9,6.7,160.0,7.2,'1111122,1111122,1111122' 
NDBC,ioos:station:NOAA.NDBC:PTAT2:1,2014-08-07T16:00:00Z,27.8260,-97.0510,14.9,5.7,150.0,6.2,'1111122,1111122,1111122' 
NDBC,ioos:station:NOAA.NDBC:PTAT2:1,2014-08-07T17:00:00Z,27.8260,-97.0510,14.9,6.7,150.0,7.2,'1111122,1111122,1111122' 
NDBC,ioos:station:NOAA.NDBC:PTAT2:1,2014-08-07T18:00:00Z,27.8260,-97.0510,14.9,7.7,140.0,8.2,'1111122,1111122,1111122' 
NDBC,ioos:station:NOAA.NDBC:PTAT2:1,2014-08-07T19:00:00Z,27.8260,-97.0510,14.9,7.7,130.0,8.2,'1111122,1111122,1111122' 
NDBC,ioos:station:NOAA.NDBC:PTAT2:1,2014-08-07T20:00:00Z,27.8260,-97.0510,14.9,9.3,130.0,9.8,'1111122,1111122,1111122' 
NDBC,ioos:station:NOAA.NDBC:PTAT2:1,2014-08-07T21:00:00Z,27.8260,-97.0510,14.9,8.2,130.0,9.8,'1111122,1111122,1111122' 
NDBC,ioos:station:NOAA.NDBC:PTAT2:1,2014-08-07T22:00:00Z,27.8260,-97.0510,14.9,8.2,130.0,9.3,'1111122,1111122,1111122' 
NDBC,ioos:station:NOAA.NDBC:PTAT2:1,2014-08-07T23:00:00Z,27.8260,-97.0510,14.9,8.8,130.0,10.3,'1111122,1111122,1111122' 
NDBC,ioos:station:NOAA.NDBC:PTAT2:1,2014-08-08T00:00:00Z,27.8260,-97.0510,14.9,7.7,130.0,9.3,'1111122,1111122,1111122' 
NDBC,ioos:station:NOAA.NDBC:PTAT2:1,2014-08-08T01:00:00Z,27.8260,-97.0510,14.9,8.8,130.0,10.3,'1111122,1111122,1111122' 
NDBC,ioos:station:NOAA.NDBC:PTAT2:1,2014-08-08T02:00:00Z,27.8260,-97.0510,14.9,8.2,130.0,9.8,'1111122,1111122,1111122' 
NDBC,ioos:station:NOAA.NDBC:PTAT2:1,2014-08-08T03:00:00Z,27.8260,-97.0510,14.9,7.7,140.0,8.8,'1111122,1111122,1111122' 
NDBC,ioos:station:NOAA.NDBC:PTAT2:1,2014-08-08T04:00:00Z,27.8260,-97.0510,14.9,8.8,150.0,9.3,'1111122,1111122,1111122' 
NDBC,ioos:station:NOAA.NDBC:PTAT2:1,2014-08-08T05:00:00Z,27.8260,-97.0510,14.9,9.8,160.0,10.8,'1111122,1111122,1111122' 
NDBC,ioos:station:NOAA.NDBC:PTAT2:1,2014-08-08T07:00:00Z,27.8260,-97.0510,14.9,9.8,160.0,11.3,'1111122,1111122,1111122' 
NDBC,ioos:station:NOAA.NDBC:PTAT2:1,2014-08-08T08:00:00Z,27.8260,-97.0510,14.9,9.3,160.0,10.8,'1111122,1111122,1111122' 
NDBC,ioos:station:NOAA.NDBC:PTAT2:1,2014-08-08T09:00:00Z,27.8260,-97.0510,14.9,8.8,160.0,9.8,'1111122,1111122,1111122' 
NDBC,ioos:station:NOAA.NDBC:PTAT2:1,2014-08-08T10:00:00Z,27.8260,-97.0510,14.9,7.7,160.0,8.2,'1111122,1111122,1111122' 
NDBC,ioos:station:NOAA.NDBC:PTAT2:1,2014-08-08T11:00:00Z,27.8260,-97.0510,14.9,6.7,160.0,7.2,'1111122,1111122,1111122' 
NDBC,ioos:station:NOAA.NDBC:PTAT2:1,2014-08-08T12:00:00Z,27.8260,-97.0510,14.9,7.7,160.0,8.8,'1111122,1111122,1111122' 
NDBC,ioos:station:NOAA.NDBC:PTAT2:1,2014-08-08T13:00:00Z,27.8260,-97.0510,14.9,7.2,150.0,7.7,'1111122,1111122,1111122' 
NDBC,ioos:station:NOAA.NDBC:PTAT2:1,2014-08-08T14:00:00Z,27.8260,-97.0510,14.9,5.1,150.0,5.7,'1111122,1111122,1111122' 
NDBC,ioos:station:NOAA.NDBC:PTAT2:1,2014-08-08T15:00:00Z,27.8260,-97.0510,14.9,5.1,130.0,5.1,'1111122,1111122,1111122' 
NDBC,ioos:station:NOAA.NDBC:PTAT2:1,2014-08-08T16:00:00Z,27.8260,-97.0510,14.9,4.6,140.0,5.1,'1111122,1111122,1111122' 
NDBC,ioos:station:NOAA.NDBC:PTAT2:1,2014-08-08T17:00:00Z,27.8260,-97.0510,14.9,4.6,130.0,4.6,'1111122,1111122,1111122' 
NDBC,ioos:station:NOAA.NDBC:PTAT2:1,2014-08-08T18:00:00Z,27.8260,-97.0510,14.9,4.1,130.0,4.6,'1111122,1111122,1111122' 
NDBC,ioos:station:NOAA.NDBC:PTAT2:1,2014-08-08T20:00:00Z,27.8260,-97.0510,14.9,6.2,130.0,6.7,'1111122,1111122,1111122' 
NDBC,ioos:station:NOAA.NDBC:PTAT2:1,2014-08-08T21:00:00Z,27.8260,-97.0510,14.9,6.7,130.0,7.7,'1111122,1111122,1111122' 
NDBC,ioos:station:NOAA.NDBC:PTAT2:1,2014-08-08T22:00:00Z,27.8260,-97.0510,14.9,5.7,120.0,6.2,'1111122,1111122,1111122' 
NDBC,ioos:station:NOAA.NDBC:PTAT2:1,2014-08-08T23:00:00Z,27.8260,-97.0510,14.9,7.2,130.0,7.7,'1111122,1111122,1111122' 
NDBC,ioos:station:NOAA.NDBC:PTAT2:1,2014-08-09T00:00:00Z,27.8260,-97.0510,14.9,6.7,140.0,7.2,'1111122,1111122,1111122' 
NDBC,ioos:station:NOAA.NDBC:PTAT2:1,2014-08-09T01:00:00Z,27.8260,-97.0510,14.9,6.7,130.0,7.7,'1111122,1111122,1111122' 
NDBC,ioos:station:NOAA.NDBC:PTAT2:1,2014-08-09T02:00:00Z,27.8260,-97.0510,14.9,7.7,150.0,8.2,'1111122,1111122,1111122' 
NDBC,ioos:station:NOAA.NDBC:PTAT2:1,2014-08-09T03:00:00Z,27.8260,-97.0510,14.9,6.7,140.0,7.7,'1111122,1111122,1111122' 
NDBC,ioos:station:NOAA.NDBC:PTAT2:1,2014-08-09T05:00:00Z,27.8260,-97.0510,14.9,8.2,160.0,8.8,'1111122,1111122,1111122' 
NDBC,ioos:station:NOAA.NDBC:PTAT2:1,2014-08-09T06:00:00Z,27.8260,-97.0510,14.9,7.7,160.0,8.8,'1111122,1111122,1111122' 
NDBC,ioos:station:NOAA.NDBC:PTAT2:1,2014-08-09T07:00:00Z,27.8260,-97.0510,14.9,6.2,160.0,6.7,'1111122,1111122,1111122' 
NDBC,ioos:station:NOAA.NDBC:PTAT2:1,2014-08-09T08:00:00Z,27.8260,-97.0510,14.9,6.7,160.0,7.2,'1111122,1111122,1111122' 
NDBC,ioos:station:NOAA.NDBC:PTAT2:1,2014-08-09T09:00:00Z,27.8260,-97.0510,14.9,6.2,160.0,7.2,'1111122,1111122,1111122' 
NDBC,ioos:station:NOAA.NDBC:PTAT2:1,2014-08-09T10:00:00Z,27.8260,-97.0510,14.9,4.6,150.0,5.1,'1111122,1111122,1111122' 
NDBC,ioos:station:NOAA.NDBC:PTAT2:1,2014-08-09T11:00:00Z,27.8260,-97.0510,14.9,3.6,140.0,4.1,'1111122,1111122,1111122' 
NDBC,ioos:station:NOAA.NDBC:PTAT2:1,2014-08-09T12:00:00Z,27.8260,-97.0510,14.9,4.1,140.0,4.6,'1111122,1111122,1111122' 
NDBC,ioos:station:NOAA.NDBC:PTAT2:1,2014-08-09T13:00:00Z,27.8260,-97.0510,14.9,5.1,130.0,5.7,'1111122,1111122,1111122' 
NDBC,ioos:station:NOAA.NDBC:PTAT2:1,2014-08-09T14:00:00Z,27.8260,-97.0510,14.9,3.1,130.0,3.6,'1111122,1111122,1111122' 
NDBC,ioos:station:NOAA.NDBC:PTAT2:1,2014-08-09T15:00:00Z,27.8260,-97.0510,14.9,5.1,150.0,5.7,'1111122,1111122,1111122' 
NDBC,ioos:station:NOAA.NDBC:PTAT2:1,2014-08-09T16:00:00Z,27.8260,-97.0510,14.9,5.1,150.0,5.1,'1111122,1111122,1111122' 
NDBC,ioos:station:NOAA.NDBC:PTAT2:1,2014-08-09T17:00:00Z,27.8260,-97.0510,14.9,4.1,140.0,4.1,'1111122,1111122,1111122' 
NDBC,ioos:station:NOAA.NDBC:PTAT2:1,2014-08-09T19:00:00Z,27.8260,-97.0510,14.9,6.2,130.0,6.7,'1111122,1111122,1111122' 
NDBC,ioos:station:NOAA.NDBC:PTAT2:1,2014-08-09T20:00:00Z,27.8260,-97.0510,14.9,4.6,130.0,5.7,'1111122,1111122,1111122' 
NDBC,ioos:station:NOAA.NDBC:PTAT2:1,2014-08-09T21:00:00Z,27.8260,-97.0510,14.9,5.1,130.0,5.7,'1111122,1111122,1111122' 
NDBC,ioos:station:NOAA.NDBC:PTAT2:1,2014-08-09T22:00:00Z,27.8260,-97.0510,14.9,5.7,130.0,6.2,'1111122,1111122,1111122' 
NDBC,ioos:station:NOAA.NDBC:PTAT2:1,2014-08-09T23:00:00Z,27.8260,-97.0510,14.9,5.7,120.0,6.2,'1111122,1111122,1111122' 
NDBC,ioos:station:NOAA.NDBC:PTAT2:1,2014-08-10T00:00:00Z,27.8260,-97.0510,14.9,5.7,130.0,6.2,'1111122,1111122,1111122' 